| time (UTC) | temp C | wind direction | speed KPH | gust KPH | rain 1hr cm | rain 24hr cm | rain mn cm | humidity % | barometer mb |
| 20260507093549 | 14 | 1 | 3.2 | 6.4 | 0.00 | 0.00 | 0.00 | 51 | 1017.5 |
| 20260507092547 | 13 | 33 | 3.2 | 12.9 | 0.00 | 0.00 | 0.00 | 53 | 1017.3 |
| 20260507091544 | 13 | 34 | 3.2 | 11.3 | 0.00 | 0.00 | 0.00 | 52 | 1017.4 |
| 20260507090542 | 13 | 32 | 4.8 | 12.9 | 0.00 | 0.00 | 0.00 | 55 | 1017.4 |
| 20260507085539 | 13 | 158 | 4.8 | 14.5 | 0.00 | 0.00 | 0.00 | 54 | 1017.2 |
| 20260507084537 | 13 | 199 | 4.8 | 11.3 | 0.00 | 0.00 | 0.00 | 56 | 1017.2 |
| 20260507083534 | 13 | 92 | 1.6 | 14.5 | 0.00 | 0.00 | 0.00 | 59 | 1017.2 |
| 20260507082531 | 13 | 11 | 3.2 | 11.3 | 0.00 | 0.00 | 0.00 | 58 | 1017.2 |
| 20260507081529 | 13 | 73 | 3.2 | 14.5 | 0.00 | 0.00 | 0.00 | 58 | 1017.2 |
| 20260507080526 | 12 | 5 | 3.2 | 9.7 | 0.00 | 0.00 | 0.00 | 60 | 1017.0 |
| 20260507075524 | 12 | 174 | 3.2 | 11.3 | 0.00 | 0.00 | 0.00 | 61 | 1016.9 |
| 20260507074521 | 12 | 245 | 3.2 | 11.3 | 0.00 | 0.00 | 0.00 | 61 | 1016.9 |
| 20260507073519 | 12 | 0 | 3.2 | 12.9 | 0.00 | 0.00 | 0.00 | 63 | 1016.9 |
| 20260507072516 | 12 | 106 | 3.2 | 12.9 | 0.00 | 0.00 | 0.00 | 64 | 1016.8 |
| 20260507071614 | 11 | 42 | 1.6 | 11.3 | 0.00 | 0.00 | 0.00 | 66 | 1016.8 |
| 20260507070611 | 11 | 12 | 1.6 | 6.4 | 0.00 | 0.00 | 0.00 | 68 | 1016.7 |
| 20260507065609 | 10 | 14 | 3.2 | 9.7 | 0.00 | 0.00 | 0.00 | 69 | 1016.7 |
| 20260507064606 | 10 | 79 | 1.6 | 6.4 | 0.00 | 0.00 | 0.00 | 69 | 1016.6 |
| 20260507063604 | 10 | 17 | 1.6 | 6.4 | 0.00 | 0.00 | 0.00 | 70 | 1016.5 |
| 20260507062601 | 10 | 51 | 3.2 | 9.7 | 0.00 | 0.00 | 0.00 | 70 | 1016.5 |
| 20260507061558 | 10 | 344 | 4.8 | 9.7 | 0.00 | 0.00 | 0.00 | 71 | 1016.3 |
| 20260507060556 | 10 | 19 | 1.6 | 14.5 | 0.00 | 0.00 | 0.00 | 70 | 1016.3 |
| 20260507055553 | 10 | 17 | 1.6 | 9.7 | 0.00 | 0.00 | 0.00 | 71 | 1016.3 |
| 20260507054551 | 10 | 126 | 1.6 | 6.4 | 0.00 | 0.00 | 0.00 | 71 | 1016.0 |
| 20260507053548 | 10 | 174 | 3.2 | 11.3 | 0.00 | 0.00 | 0.00 | 72 | 1016.1 |
| 20260507052545 | 10 | 90 | 0.0 | 3.2 | 0.00 | 0.00 | 0.00 | 71 | 1016.0 |
| 20260507051543 | 10 | 147 | 0.0 | 6.4 | 0.00 | 0.00 | 0.00 | 71 | 1015.9 |
| 20260507050540 | 10 | 45 | 0.0 | 3.2 | 0.00 | 0.00 | 0.00 | 72 | 1015.8 |
| 20260507045538 | 9 | 45 | 0.0 | 3.2 | 0.00 | 0.00 | 0.00 | 73 | 1015.6 |
| 20260507044535 | 8 | 24 | 1.6 | 6.4 | 0.00 | 0.00 | 0.00 | 74 | 1015.6 |
| 20260507043533 | 7 | 0.0 | 3.2 | 0.00 | 0.00 | 0.00 | 78 | 1015.5 | |
| 20260507042530 | 7 | 180 | 0.0 | 3.2 | 0.00 | 0.00 | 0.00 | 81 | 1015.4 |
| 20260507041528 | 6 | 0 | 0.0 | 3.2 | 0.00 | 0.00 | 0.00 | 82 | 1015.4 |
| 20260507040525 | 7 | 0.0 | 3.2 | 0.00 | 0.00 | 0.00 | 82 | 1015.2 | |
| 20260507035523 | 7 | 0.0 | 0.0 | 0.00 | 0.00 | 0.00 | 82 | 1015.0 | |
| 20260507034520 | 7 | 23 | 0.0 | 3.2 | 0.00 | 0.00 | 0.00 | 82 | 1015.0 |
| 20260507033518 | 7 | 0.0 | 0.0 | 0.00 | 0.00 | 0.00 | 81 | 1014.9 | |
| 20260507032515 | 7 | 0 | 0.0 | 6.4 | 0.00 | 0.00 | 0.00 | 81 | 1014.7 |
| 20260507031613 | 7 | 90 | 0.0 | 3.2 | 0.00 | 0.00 | 0.00 | 80 | 1014.7 |
| 20260507030610 | 7 | 211 | 1.6 | 6.4 | 0.00 | 0.00 | 0.00 | 80 | 1014.7 |
| 20260507025607 | 7 | 135 | 0.0 | 6.4 | 0.00 | 0.00 | 0.00 | 80 | 1014.7 |
| 20260507024605 | 7 | 23 | 0.0 | 3.2 | 0.00 | 0.00 | 0.00 | 80 | 1014.6 |
| 20260507023602 | 7 | 6 | 0.0 | 3.2 | 0.00 | 0.00 | 0.00 | 80 | 1014.4 |
| 20260507022600 | 8 | 0 | 0.0 | 3.2 | 0.00 | 0.00 | 0.00 | 80 | 1014.4 |
| 20260507021557 | 8 | 11 | 0.0 | 3.2 | 0.00 | 0.00 | 0.00 | 79 | 1014.3 |
| 20260507020555 | 8 | 0.0 | 3.2 | 0.00 | 0.00 | 0.00 | 79 | 1014.1 | |
| 20260507015552 | 8 | 52 | 1.6 | 6.4 | 0.00 | 0.00 | 0.00 | 79 | 1014.2 |
| 20260507014549 | 8 | 34 | 0.0 | 6.4 | 0.00 | 0.00 | 0.00 | 80 | 1014.0 |
| 20260507013547 | 8 | 32 | 1.6 | 3.2 | 0.00 | 0.00 | 0.00 | 80 | 1013.9 |
| 20260507012544 | 8 | 23 | 0.0 | 3.2 | 0.00 | 0.00 | 0.00 | 79 | 1013.9 |
| 20260507011542 | 8 | 328 | 0.0 | 6.4 | 0.00 | 0.00 | 0.00 | 79 | 1013.9 |
| 20260507010539 | 8 | 0 | 0.0 | 3.2 | 0.00 | 0.00 | 0.00 | 79 | 1013.8 |
| 20260507005537 | 8 | 0.0 | 3.2 | 0.00 | 0.00 | 0.00 | 79 | 1013.8 | |
| 20260507004534 | 8 | 225 | 0.0 | 3.2 | 0.00 | 0.00 | 0.00 | 79 | 1013.7 |
| 20260507003532 | 8 | 0.0 | 3.2 | 0.00 | 0.00 | 0.00 | 79 | 1013.8 | |
| 20260507002529 | 8 | 315 | 0.0 | 3.2 | 0.00 | 0.00 | 0.00 | 79 | 1013.7 |
| 20260507001527 | 8 | 203 | 0.0 | 3.2 | 0.00 | 0.00 | 0.00 | 79 | 1013.7 |
| 20260507000524 | 8 | 0.0 | 3.2 | 0.00 | 0.00 | 0.00 | 79 | 1013.6 | |
| 20260506235521 | 8 | 23 | 0.0 | 3.2 | 0.00 | 0.00 | 0.00 | 79 | 1013.8 |
| 20260506234519 | 8 | 5 | 1.6 | 6.4 | 0.00 | 0.00 | 0.00 | 79 | 1013.7 |
| 20260506233517 | 8 | 347 | 1.6 | 3.2 | 0.00 | 0.00 | 0.00 | 78 | 1013.6 |
| 20260506232614 | 8 | 20 | 1.6 | 6.4 | 0.00 | 0.00 | 0.00 | 79 | 1013.6 |
| 20260506231611 | 9 | 15 | 0.0 | 6.4 | 0.00 | 0.00 | 0.00 | 79 | 1013.5 |
| 20260506230609 | 9 | 158 | 0.0 | 3.2 | 0.00 | 0.00 | 0.00 | 79 | 1013.5 |
| 20260506225606 | 9 | 23 | 0.0 | 3.2 | 0.00 | 0.00 | 0.00 | 79 | 1013.3 |
| 20260506224604 | 9 | 42 | 0.0 | 3.2 | 0.00 | 0.00 | 0.00 | 78 | 1013.4 |
| 20260506223601 | 9 | 0 | 0.0 | 3.2 | 0.00 | 0.00 | 0.00 | 78 | 1013.4 |
| 20260506222559 | 9 | 0.0 | 3.2 | 0.00 | 0.00 | 0.00 | 78 | 1013.2 | |
| 20260506221556 | 9 | 359 | 1.6 | 6.4 | 0.00 | 0.00 | 0.00 | 78 | 1013.1 |
| 20260506220554 | 9 | 68 | 0.0 | 6.4 | 0.00 | 0.00 | 0.00 | 78 | 1013.2 |
| 20260506215551 | 9 | 0.0 | 3.2 | 0.00 | 0.00 | 0.00 | 78 | 1013.2 | |
| 20260506214548 | 9 | 23 | 0.0 | 3.2 | 0.00 | 0.00 | 0.00 | 78 | 1013.1 |
| 20260506213546 | 9 | 0 | 0.0 | 3.2 | 0.00 | 0.00 | 0.00 | 77 | 1013.0 |
| 20260506212543 | 9 | 15 | 0.0 | 3.2 | 0.00 | 0.00 | 0.00 | 77 | 1012.9 |
| 20260506211541 | 10 | 0.0 | 3.2 | 0.00 | 0.00 | 0.00 | 76 | 1012.9 | |
| 20260506210538 | 10 | 0 | 0.0 | 6.4 | 0.00 | 0.00 | 0.00 | 75 | 1012.8 |
| 20260506205536 | 10 | 0.0 | 0.0 | 0.00 | 0.00 | 0.00 | 74 | 1012.8 | |
| 20260506204533 | 10 | 0.0 | 3.2 | 0.00 | 0.00 | 0.00 | 74 | 1012.8 | |
| 20260506203531 | 10 | 23 | 0.0 | 3.2 | 0.00 | 0.00 | 0.00 | 74 | 1012.8 |
| 20260506202528 | 10 | 23 | 0.0 | 3.2 | 0.00 | 0.00 | 0.00 | 74 | 1012.7 |
| 20260506201526 | 10 | 0 | 0.0 | 3.2 | 0.00 | 0.00 | 0.00 | 73 | 1012.6 |
| 20260506200523 | 10 | 20 | 0.0 | 3.2 | 0.00 | 0.00 | 0.00 | 71 | 1012.6 |
| 20260506195515 | 10 | 12 | 0.0 | 3.2 | 0.00 | 0.00 | 0.00 | 71 | 1012.6 |
| 20260506194613 | 10 | 16 | 1.6 | 6.4 | 0.00 | 0.00 | 0.00 | 69 | 1012.4 |
| 20260506193604 | 10 | 39 | 1.6 | 6.4 | 0.00 | 0.00 | 0.00 | 67 | 1012.4 |
| 20260506192602 | 11 | 181 | 1.6 | 6.4 | 0.00 | 0.00 | 0.00 | 65 | 1012.2 |
| 20260506191559 | 11 | 34 | 0.0 | 3.2 | 0.00 | 0.00 | 0.00 | 65 | 1012.1 |
| 20260506190551 | 11 | 11 | 0.0 | 6.4 | 0.00 | 0.00 | 0.00 | 64 | 1012.0 |
| 20260506185549 | 11 | 23 | 0.0 | 3.2 | 0.00 | 0.00 | 0.00 | 61 | 1011.9 |
| 20260506184540 | 11 | 0.0 | 3.2 | 0.00 | 0.00 | 0.00 | 58 | 1011.7 | |
| 20260506183538 | 11 | 39 | 1.6 | 3.2 | 0.00 | 0.00 | 0.00 | 57 | 1011.7 |
| 20260506182535 | 11 | 0 | 1.6 | 6.4 | 0.00 | 0.00 | 0.00 | 56 | 1011.5 |
| 20260506181527 | 11 | 12 | 1.6 | 6.4 | 0.00 | 0.00 | 0.00 | 56 | 1011.3 |
| 20260506180525 | 12 | 23 | 1.6 | 3.2 | 0.00 | 0.00 | 0.00 | 58 | 1011.4 |
| 20260506175516 | 12 | 23 | 0.0 | 3.2 | 0.00 | 0.00 | 0.00 | 59 | 1011.3 |
| 20260506174614 | 12 | 23 | 1.6 | 3.2 | 0.00 | 0.00 | 0.00 | 61 | 1011.2 |
| 20260506173611 | 12 | 40 | 0.0 | 6.4 | 0.00 | 0.00 | 0.00 | 64 | 1011.2 |
| 20260506172603 | 12 | 0 | 0.0 | 3.2 | 0.00 | 0.00 | 0.00 | 63 | 1011.2 |
| 20260506171600 | 12 | 0 | 0.0 | 3.2 | 0.00 | 0.00 | 0.00 | 65 | 1011.0 |
| 20260506170552 | 12 | 0 | 0.0 | 6.4 | 0.00 | 0.00 | 0.00 | 65 | 1010.9 |
| 20260506165550 | 12 | 0.0 | 3.2 | 0.00 | 0.00 | 0.00 | 66 | 1010.8 | |
| 20260506164547 | 12 | 150 | 1.6 | 6.4 | 0.00 | 0.00 | 0.00 | 65 | 1010.8 |
| 20260506163539 | 12 | 124 | 1.6 | 6.4 | 0.00 | 0.00 | 0.00 | 64 | 1010.8 |
| 20260506162536 | 13 | 27 | 1.6 | 9.7 | 0.00 | 0.00 | 0.00 | 62 | 1010.8 |
| 20260506161529 | 13 | 8 | 1.6 | 6.4 | 0.00 | 0.00 | 0.00 | 61 | 1010.7 |
| 20260506160526 | 13 | 44 | 1.6 | 6.4 | 0.00 | 0.00 | 0.00 | 60 | 1010.8 |
| 20260506155523 | 13 | 250 | 1.6 | 6.4 | 0.00 | 0.00 | 0.00 | 60 | 1010.7 |
| 20260506154515 | 13 | 123 | 4.8 | 11.3 | 0.00 | 0.00 | 0.00 | 59 | 1010.9 |
| 20260506153613 | 13 | 174 | 3.2 | 6.4 | 0.00 | 0.00 | 0.00 | 58 | 1011.0 |
| 20260506152605 | 13 | 208 | 1.6 | 6.4 | 0.00 | 0.00 | 0.00 | 58 | 1010.9 |
| 20260506151602 | 13 | 13 | 1.6 | 6.4 | 0.00 | 0.00 | 0.00 | 57 | 1010.9 |
| 20260506150600 | 13 | 0 | 0.0 | 3.2 | 0.00 | 0.00 | 0.00 | 56 | 1010.8 |
| 20260506145551 | 13 | 25 | 1.6 | 6.4 | 0.00 | 0.00 | 0.00 | 55 | 1010.9 |
| 20260506144548 | 13 | 348 | 1.6 | 6.4 | 0.00 | 0.00 | 0.00 | 54 | 1010.9 |
| 20260506143541 | 13 | 0 | 0.0 | 6.4 | 0.00 | 0.00 | 0.00 | 54 | 1010.9 |
| 20260506142538 | 13 | 3 | 1.6 | 6.4 | 0.00 | 0.00 | 0.00 | 53 | 1010.9 |
| 20260506141536 | 13 | 30 | 1.6 | 6.4 | 0.00 | 0.00 | 0.00 | 52 | 1010.9 |
| 20260506140527 | 13 | 87 | 1.6 | 6.4 | 0.00 | 0.00 | 0.00 | 51 | 1010.9 |
| 20260506135525 | 13 | 50 | 1.6 | 6.4 | 0.00 | 0.00 | 0.00 | 51 | 1010.9 |
| 20260506134516 | 13 | 29 | 1.6 | 6.4 | 0.00 | 0.00 | 0.00 | 49 | 1010.9 |
| 20260506133614 | 13 | 37 | 1.6 | 9.7 | 0.00 | 0.00 | 0.00 | 48 | 1010.8 |
| 20260506132611 | 13 | 18 | 1.6 | 6.4 | 0.00 | 0.00 | 0.00 | 48 | 1010.9 |
| 20260506131603 | 13 | 358 | 1.6 | 6.4 | 0.00 | 0.00 | 0.00 | 47 | 1010.7 |
| 20260506130601 | 13 | 134 | 1.6 | 6.4 | 0.00 | 0.00 | 0.00 | 46 | 1010.7 |
| 20260506125552 | 13 | 340 | 1.6 | 9.7 | 0.00 | 0.00 | 0.00 | 45 | 1010.7 |
| 20260506124550 | 14 | 114 | 3.2 | 9.7 | 0.00 | 0.00 | 0.00 | 45 | 1010.6 |
| 20260506123547 | 14 | 10 | 1.6 | 6.4 | 0.00 | 0.00 | 0.00 | 44 | 1010.6 |
| 20260506122539 | 14 | 10 | 3.2 | 11.3 | 0.00 | 0.00 | 0.00 | 44 | 1010.5 |
| 20260506121537 | 15 | 11 | 1.6 | 6.4 | 0.00 | 0.00 | 0.00 | 43 | 1010.4 |
| 20260506120528 | 14 | 23 | 3.2 | 6.4 | 0.00 | 0.00 | 0.00 | 43 | 1010.4 |
| 20260506115526 | 14 | 49 | 1.6 | 6.4 | 0.00 | 0.00 | 0.00 | 43 | 1010.3 |
| 20260506114523 | 14 | 94 | 3.2 | 11.3 | 0.00 | 0.00 | 0.00 | 42 | 1010.3 |
| 20260506113515 | 14 | 40 | 3.2 | 11.3 | 0.00 | 0.00 | 0.00 | 41 | 1010.2 |
| 20260506112613 | 14 | 16 | 1.6 | 6.4 | 0.00 | 0.00 | 0.00 | 41 | 1010.3 |
| 20260506111604 | 13 | 37 | 1.6 | 6.4 | 0.00 | 0.00 | 0.00 | 43 | 1010.4 |
| 20260506110602 | 13 | 12 | 3.2 | 9.7 | 0.00 | 0.00 | 0.00 | 43 | 1010.3 |
| 20260506105559 | 13 | 354 | 3.2 | 9.7 | 0.00 | 0.00 | 0.00 | 44 | 1010.4 |
| 20260506104551 | 13 | 95 | 1.6 | 6.4 | 0.00 | 0.00 | 0.00 | 44 | 1010.4 |
| 20260506103549 | 13 | 18 | 3.2 | 11.3 | 0.00 | 0.00 | 0.00 | 44 | 1010.4 |
| 20260506102540 | 13 | 73 | 1.6 | 6.4 | 0.00 | 0.00 | 0.00 | 45 | 1010.4 |
| 20260506101538 | 13 | 2 | 1.6 | 6.4 | 0.00 | 0.00 | 0.00 | 46 | 1010.4 |
| 20260506100535 | 13 | 122 | 1.6 | 6.4 | 0.00 | 0.00 | 0.00 | 46 | 1010.4 |
| 20260506095527 | 12 | 27 | 1.6 | 6.4 | 0.00 | 0.00 | 0.00 | 46 | 1010.6 |
| 20260506094525 | 12 | 18 | 3.2 | 14.5 | 0.00 | 0.00 | 0.00 | 46 | 1010.5 |